Hourly Data Report for September 28, 2017

All times are specified in Local Standard Time (LST). Add 1 hour to adjust for Daylight Saving Time where and when it is observed.

KUGLUKTUK A
NUNAVUT

67°49'00.000" N
115°08'38.000" W
22.60 m
2300903
71938
YCO

Download Data

Hourly Data (September 2017)
Hourly Data Report for September 28, 2017
Temp Definition
°C
Dew Point Temp Definition
°C
Rel Hum Definition
%
Wind Dir Definition
10's deg

Wind Spd Definition
km/h
Visibility Definition
km
Stn Press Definition
kPa
Hmdx Definition


Wind Chill Definition


Weather Definition


TIME
00:00 Legend Double Dagger 0.2 -2.0 85 12 14 24.1 102.12     LegendNANA
01:00 Legend Double Dagger -0.3 -2.2 87 10 18 24.1 102.04   -5 LegendNANA
02:00 Legend Double Dagger -0.8 -2.7 87 11 16 24.1 101.94   -6 Clear
03:00 Legend Double Dagger -0.9 -3.2 85 11 16 24.1 101.83   -6 LegendNANA
04:00 Legend Double Dagger 0.3 -2.7 81 13 16 24.1 101.68     LegendNANA
05:00 Legend Double Dagger 1.1 -2.0 80 13 18 24.1 101.56     Mainly Clear
06:00 Legend Double Dagger 2.3 -0.2 84 13 22 24.1 101.36     Rain
07:00 Legend Double Dagger 3.0 0.6 84 13 23 24.1 101.22     Rain
08:00 Legend Double Dagger 3.1 1.6 90 12 16 24.1 101.08     Rain
09:00 Legend Double Dagger 3.9 2.2 89 9 25 24.1 100.95     Rain
10:00 Legend Double Dagger 4.4 3.1 91 9 23 24.1 100.81     Rain
11:00 Legend Double Dagger 5.3 3.8 90 10 11 19.3 100.67     Rain
12:00 Legend Double Dagger 6.0 4.1 88 16 18 12.9 100.46     Rain
13:00 Legend Double Dagger 7.0 4.8 86 17 33 19.3 100.27     Rain
14:00 Legend Double Dagger 7.0 5.3 89 17 27 24.1 100.15     Rain
15:00 Legend Double Dagger 7.0 5.7 92 18 23 16.1 100.05     Rain
16:00 Legend Double Dagger 7.0 6.2 95 18 9 16.1 99.95     Drizzle
17:00 Legend Double Dagger 7.4 6.4 93 19 5 19.3 99.86     Drizzle
18:00 Legend Double Dagger 7.5 6.6 94 18 9 24.1 99.76     LegendNANA
19:00 Legend Double Dagger 7.7 6.5 92 19 14 24.1 99.69     LegendNANA
20:00 Legend Double Dagger 7.4 6.8 96 24 7 24.1 99.65     Cloudy
21:00 Legend Double Dagger 7.5 6.8 95 24 10 24.1 99.62     LegendNANA
22:00 Legend Double Dagger 7.4 6.9 97 23 12 16.1 99.59     Drizzle
23:00 Legend Double Dagger 7.8 7.1 95 23 14 24.1 99.58     Cloudy

Notes on Data Quality.

Legend

  • E = Estimated
  • M = Missing
  • NA = Not Available
  • ‡ = Partner data that is not subject to review by the National Climate Archives
Date modified: